Tracking 19846 objects as of 20-Sep-2019
HD Live streaming from Space Station
objects crossing your sky now

ST5-A

Track ST5-A now!
10-day predictions
ST5-A is classified as:


NORAD ID: 28980
Int'l Code: 2006-008A
Perigee: 309.0 km
Apogee: 3,704.8 km
Inclination: 105.5 °
Period: 127.2 minutes
Semi major axis: 8377 km
RCS: 0.3025 m2 (medium)
Launch date: March 22, 2006
Source: United States (US)
Launch site: Pegasus launched from Western Range Air Space (WRAS)
aabbcc
Your satellite tracking list
Your tracking list is empty




NASA's NSSDC Master Catalog

Two Line Element Set (TLE):
1 28980U 06008A   19262.13356450  .00003307  00000-0  15685-3 0  9999
2 28980 105.5034 178.9388 2026623 171.0401 193.3392 11.32141511536392
Source of the keplerian elements: AFSPC